Regional Weather Roundup
Issued by NWS

Home | Current Version | Previous Version | Graphics & Text | Print | Product List | Glossary On
Versions: 1 2 3 4 5 6 7 8 9 10 11 12 13 14 15 16 17 18 19 20 21 22 23 24 25 26 27 28 29 30 31 32 33 34 35 36 37 38 39 40 41 42 43 44 45 46 47 48 49 50
000
ASUS43 KMKX 272228
RWRWI

WISCONSIN REGIONAL WEATHER ROUNDUP
NATIONAL WEATHER SERVICE MILWAUKEE/SULLIVAN WI
500 PM CDT WED MAY 27 2015

NOTE: "FAIR" INDICATES FEW OR NO CLOUDS BELOW 12,000 FEET WITH NO
SIGNIFICANT WEATHER AND/OR OBSTRUCTIONS TO VISIBILITY.

WIZ001-002-006>008-014>016-023>028-272300-
NORTHWEST WISCONSIN

CITY           SKY/WX    TMP DP  RH WIND       PRES   REMARKS
SUPERIOR ARPT  MOSUNNY   84  48  28 NW9       29.88R HX  82
ASHLAND        CLOUDY    71  53  52 SW6       29.91R
HAYWARD        LGT RAIN  70  51  51 N20G30    29.97R
SIREN          MOSUNNY   81  49  31 W9G17     29.93S HX  80
CUMBERLAND     SUNNY     77  54  44 W12G17    29.96S
RICE LAKE      MOSUNNY   80  55  42 W8        29.97S HX  80
CHETEK         MOSUNNY   79  61  53 MISG      29.95F HX  80
LADYSMITH      MOSUNNY   78  58  50 W9G17     29.97S
EAU CLAIRE     SUNNY     80  58  46 SW10      29.95F HX  80
MENOMONIE      SUNNY     80  58  46 W12       29.97S HX  80
NEW RICHMOND   SUNNY     80  54  41 W10       29.97S HX  80
OSCEOLA        SUNNY     81  56  42 SW8       29.98S HX  81
$$

WIZ003>005-009-010-017-018-272300-
NORTH CENTRAL WISCONSIN

CITY           SKY/WX    TMP DP  RH WIND       PRES   REMARKS
MANITOWISH WTR PTSUNNY   74  54  50 W8        29.92S
ARBOR VITAE    PTSUNNY   74  55  50 W7        29.93S
WOODRUFF       PTSUNNY   74  55  50 W7        29.93S
RHINELANDER    MOSUNNY   76  56  49 W10       29.94F
EAGLE RIVER    MOSUNNY   73  50  43 W9        29.93R
LAND O LAKES   MOSUNNY   77  49  38 W7        29.93R
PHILLIPS       MOSUNNY   75  57  54 SW10      29.94S
TOMAHAWK       SUNNY     75  55  48 W6        29.95F
MEDFORD        MOSUNNY   73  59  60 W9        29.97F
MERRILL        SUNNY     76  61  60 W12       29.96S
$$

WIZ029-030-035-036-043>047-272300-
CENTRAL WISCONSIN

CITY           SKY/WX    TMP DP  RH WIND       PRES   REMARKS
WAUSAU         MOSUNNY   76  58  53 W13G18    29.95F
MOSINEE        MOSUNNY   73  61  64 SW13G20   29.98S
MARSHFIELD     SUNNY     76  58  53 W12       29.98S
STEVENS POINT  MOSUNNY   74  56  53 W8        29.98S
WAUPACA        MOSUNNY   78  56  46 W12G20    29.97S
WAUTOMA        MOSUNNY   79  56  45 W14       29.99R HX  80
WISC RAPIDS    SUNNY     78  54  43 W10       29.99S
CAMP DOUGLAS   MOSUNNY   77  61  57 SW10      29.99S
$$

WIZ011>013-019>022-031-037>040-048>050-272300-
NORTHEAST WISCONSIN

CITY           SKY/WX    TMP DP  RH WIND       PRES   REMARKS
ANTIGO         MOSUNNY   72  60  66 W13G20    29.96S
SHAWANO        MOSUNNY   77  59  53 W13G21    29.95R
OCONTO         MOSUNNY   75  60  60 W15       29.92R
STURGEON BAY   SUNNY     72  59  64 W13G20    29.96R
GREEN BAY      SUNNY     75  62  64 W14       29.95S
MANITOWOC      MOSUNNY   73  59  61 W10       29.97S
APPLETON       MOSUNNY   75  55  50 W12G20    29.97S
CLINTONVILLE   MOSUNNY   77  55  47 W12       29.95S
OSHKOSH        SUNNY     75  56  51 W9        29.98R
$$

WIZ032>034-041-042-053>061-272300-
SOUTHWEST WISCONSIN

CITY           SKY/WX    TMP DP  RH WIND       PRES   REMARKS
LA CROSSE      SUNNY     82  59  45 W13       29.98S HX  82
SPARTA         MOSUNNY   78  55  43 W9        30.00S
VIROQUA        MOSUNNY   76  58  53 W13       30.03S
BOSCOBEL       MOSUNNY   79  59  50 SW8       30.02S HX  80
PRAIRIE DU CHI MOSUNNY   79  55  43 SW9       30.02S
PLATTEVILLE    MOSUNNY   76  58  53 W7        30.05R
$$

WIZ056-057-062-063-064-067-068-272300-
SOUTH CENTRAL WISCONSIN

CITY           SKY/WX    TMP DP  RH WIND       PRES   REMARKS
REEDSBURG      MOSUNNY   76  59  56 W13       30.01R
BARABOO/DELLS  MOSUNNY   75  56  51 W12       30.02S
LONE ROCK      MOSUNNY   77  57  50 W10       30.02S
MINERAL POINT  PTSUNNY   77  55  47 SW7       30.05R
MADISON        MOSUNNY   75  53  46 W9G25     30.02R
MIDDLETON      SUNNY     77  53  43 W9        30.03R
WATERTOWN      SUNNY     73  56  55 W8        30.02R
MONROE         SUNNY     75  54  46 W13       30.05S
JANESVILLE     SUNNY     75  54  46 NW9       30.03R
$$

WIZ051-052-058>065-066-070>072-272300-
SOUTHEAST WISCONSIN

CITY           SKY/WX    TMP DP  RH WIND       PRES   REMARKS
MILWAUKEE      MOSUNNY   69  56  62 E5        30.02R
WAUKESHA       MOSUNNY   70  54  56 NW8       30.03R
MILWAUKEE/TIMM MOSUNNY   73  52  46 NW8       30.02R
RACINE         SUNNY     69  56  62 NE7       30.04R
BURLINGTON     SUNNY     71  53  54 NW5       30.03R
KENOSHA        SUNNY     71  58  63 E7        30.03R
FOND DU LAC    SUNNY     74  57  55 W9        29.99S
SHEBOYGAN      SUNNY     73  57  57 W13       29.99R
WEST BEND      SUNNY     72  52  49 NW9G16    30.01R
JUNEAU         SUNNY     73  56  55 W13       30.03R
$$

LSZ147-162-272300-
LAKE SUPERIOR

STATION/POSITION TIME  TEMP    WIND        PRES    WAVE
                       AIR SEA DIR/SP/G            HT/PER
                 (UTC) (F)     (DEG/KT/KT) (MB)    (FT/S)
W MID LAKE BUOY  2050   44 37  240/ 10/ 12   N/A     1/ 4
DEVILS ISLAND    2200   74     190/  2/  3   N/A
PORT WING        2100   79     220/ 10/ 14   N/A
SAXON HARBOR     2100   74        CALM       N/A
$$

LMZ867-665-643>646-272300-
LAKE MICHIGAN

STATION/POSITION TIME  TEMP    WIND        PRES    WAVE
                       AIR SEA DIR/SP/G            HT/PER
                 (UTC) (F)     (DEG/KT/KT) (MB)    (FT/S)
CHAMBERS ISLAND  2100   65     170/ 10/ 16   N/A
N MID LAKE BUOY  2050   44 36  210/ 10/ 10   N/A     2/ 5
NORTHPORT PIER   2100   71     210/  5/ 15   N/A
SISTER BAY       2103   68     230/ 14/ 17   N/A
ALGOMA LAKESHORE 2053          270/ 16/ 22   N/A
KEWAUNEE LAKESHO 2100   71     260/  9/ 13   N/A
SHEBOYGAN LAKESH 2200   55     160/  4/  6   N/A
PORT WASHINGTON  2140   61     180/  5/  8   N/A
ATWATER BUOY     2100   54 48  360/  2/  2   N/A
MILWAUKEE LAKESH 2100   60      40/  7/  7   N/A
S MID LAKE BUOY  2050   49 38  250/  6/  8   N/A     1
KENOSHA   LAKESH 2100   66      20/ 12/ 16   N/A
$$

TC  - TEMPERATURE IN CELSIUS
VSB - VISIBILITY IN STATUTE MILES
WCI - WIND CHILL INDEX
HX  - HEAT INDEX




USA.gov is the U.S. government's official web portal to all federal, state and local government web resources and services.